Location: ???????
(52.3000°N, 54.4667°E)
Time: 17:49:55
(UTC+00:00)

IRS-1C Rocket - Pass Details

Date: 24 January 2020
Orbit: 801 x 805 km, 99.0° (Epoch: 20 February)

Event Time Altitude Azimuth Distance (km) Brightness Sun altitude
Rises 13:23:21 0° 157° (SSE) 3,300 7.3 -4.9°
Reaches altitude 10° 13:25:40 10° 156° (SSE) 2,374 6.6 -5.2°
Maximum altitude 13:30:54 77° 71° (ENE) 829 4.1 -5.9°
Drops below altitude 10° 13:36:11 10° 346° (NNW) 2,392 6.5 -6.7°
Sets 13:38:31 0° 345° (NNW) 3,327 7.2 -7.0°
